Overview Statistics Trail Chart Weather Telemetry Raw packets
 

This is the latest recevied weather packets stored in our database for station/object WW5JC. If no packets are shown the sender has not sent any weather packets the latest 10 day(s).

<< 42 43 44 45 46 47 48 >>
Time Temp. Humidity Pressure Rain* Wind** Luminosity Snow
1788339817 25.56° C 80% 1017.5 hPa 0 mm - 0 W/m² -
1788339517 25.56° C 80% 1017.6 hPa 0 mm - 0 W/m² -
1788339212 25.56° C 81% 1017.7 hPa 0 mm - 0 W/m² -
1788338907 25° C 81% 1017.6 hPa 0 mm - 0 W/m² -
1788338605 25.56° C 81% 1017.7 hPa 0 mm - 0 W/m² -
1788338299 25.56° C 80% 1017.6 hPa 0 mm - 0 W/m² -
1788337999 25.56° C 80% 1017.4 hPa 0 mm - 0 W/m² -
1788337694 25.56° C 80% 1017.5 hPa 0 mm - 0 W/m² -
1788337391 25.56° C 79% 1017.7 hPa 0 mm - 0 W/m² -
1788337087 25.56° C 79% 1017.7 hPa 0 mm - 0 W/m² -
1788336782 25.56° C 78% 1017.6 hPa 0 mm - 0 W/m² -
1788336477 25.56° C 78% 1017.8 hPa 0 mm - 0 W/m² -
1788336174 25.56° C 78% 1017.9 hPa 0 mm - 0 W/m² -
1788335873 26.11° C 78% 1017.7 hPa 0 mm - 0 W/m² -
1788335569 26.11° C 77% 1017.8 hPa 0 mm - 0 W/m² -
1788335269 26.11° C 77% 1017.7 hPa 0 mm - 0 W/m² -
1788334965 26.11° C 77% 1017.7 hPa 0 mm - 0 W/m² -
1788334660 26.11° C 77% 1017.7 hPa 0 mm - 0 W/m² -
1788334356 26.11° C 77% 1017.6 hPa 0 mm - 0 W/m² -
1788334052 26.11° C 77% 1017.7 hPa 0 mm - 0 W/m² -
1788333748 26.11° C 76% 1017.8 hPa 0 mm - 0 W/m² -
1788333444 26.67° C 76% 1017.9 hPa 0 mm - 0 W/m² -
1788333139 26.11° C 76% 1017.9 hPa 0 mm - 0 W/m² -
1788332835 26.11° C 76% 1017.9 hPa 0 mm - 0 W/m² -
1788332534 26.67° C 75% 1017.9 hPa 0 mm - 0 W/m² -

* Rain latest hour (hover to see other rain measurements)
** Current wind speed in m/s (hover to see current wind gust speed)